Location: Dead Woman Crossing
(43.5369°N, 106.3228°W)
Time: 01:32:18
(UTC+00:00)

deb Delta 126 - Pass Details

Date: 18 December 2022
Orbit: 1046 x 1646 km, 101.7° (Epoch: 29 January)

Event Time Altitude Azimuth Distance (km) Brightness Sun altitude
Rises 11:40:21 0° 139° (SE) 4,099 ? -30.3°
Reaches altitude 10° 11:43:09 10° 133° (SE) 3,066 ? -29.8°
Maximum altitude 11:49:33 45° 64° (ENE) 1,459 ? -28.7°
Drops below altitude 10° 11:55:33 10° 354° (N) 2,878 ? -27.6°
Enters shadow 11:55:55 - 353° (N) 3,012 ? -27.5°
